Hlavní strana
METAR-TAF:

METAR-TAF

Letiště :

Eagle, Aljaška, Spojené státy americké

zeměpisná šířka: 64-46-35N, zeměpisná délka: 141-09-03W, výška: 268 m

Aktuální stav počasí

Zpráva byla vytvořena před 26 minutami, v 09:53 UTC
Východojihovýchodní vítr 10 kt s nárazy do 22 kt
Teplota -15°C
Vlhkost vzduchu 60%
Tlak 1029 hPa
Viditelnost: 16.1 km
Jasno

METAR: PAEG 170953Z AUTO 11010G22KT 10SM CLR M15/M21 A3040 RMK AO2 SLP320 T11501206 TSNO

Čas: 01:19 (10:19 UTC)


TAF: chybějící

Stav a předpovědi počasí z více než 4 000 letišť (zprávy METAR a TAF).

Červené a žluté tečky na mapě představují dostupné meteorologické stanice.

Když kurzor umístíte na tečku, zobrazí se název stanice.

Pak kliknutím zobrazíte stav a předpověď počasí.

Chcete-li změnit mapu, kliknutím na zelené tlačítko se znaménkem +mapu přiblížíte, kliknutím na zelené tlačítko se znaménkem – mapu oddálíte a kliknutím na zelené šipky přejdete na sousední mapy.


METAR-TAF: